CZ-3C DEB, 40858

Orbit data source: Space-Track

CZ-3C DEB, 40858 is space debris in HEO originally from a launch on Fri, 24 Feb 2012 UTC launched from the Xichang Space Center, China (XSC). Debris objects in space refer to the collection of defunct objects orbiting the Earth. Examples of debris include non-operational satellites, rocket bodies, and fragments generated from explosions, collisions, or faulty payload assembly.

Loading next visibility...
Identifier
40858, 2012-008Y
Orbit
HEO
Country
Flag of CNCN / PRC
Related business
Manufacturer
CALT
Mission
Spacecraft
Bus & Motor
Unknown
Mass
Unknown
Launch date (UTC)
2012-02-24 (14 years ago)
Launch vehicle
Unknown
Launch site
Xichang Space Center, China (XSC)
Object type
Payload
Rocket body
Debris
Shape & HBR
Unknown shape, 0.1 m
Radar Cross Section
Medium (>0.1 m² and <1 m²)

Expand to show TLE details & history
Last TLE update: 3 days ago

TLE from 3 days ago
0 CZ-3C DEB
1 40858U 12008Y   26170.72764307 -.00000074  00000-0  10124-2 0  9990
2 40858  18.3891  69.5665 7296752 186.9899 149.7634  2.12260014 89270
Epoch: 2026-06-19T17:27Z
TLE epoch observation values (Epoch: 2026-06-19T17:27:48.361Z)
Latitude
0.00012°
Longitude
-100.32972°
Altitude
36,998.418 km
Speed
1.671 km/s
True Right ascension
04h 38m 17s
True Declination
0° 00' 00"
Sunlit
Object was in daylight at epoch
Visualization orbit readout
Latitude
Unknown
Longitude
Unknown
Altitude
Unknown
Speed
Unknown
Apparent Right ascension
Unknown
Apparent Declination
Unknown
Sunlit
N/A
Visualization observer readout
Local Sidereal Time
21:41:31
Azimuth
Unknown
Elevation
Unknown
Doppler factor
Unknown
Orbital elements
Apogee altitude
37,867.014 km
Perigee altitude
536.781 km
Semi-major axis
25,580.034 km
Eccentricity
0.72968
Inclination
18.3891°
RAAN
69.5665°
Arg. of periapsis
186.9899°
True anomaly
172.99679°
Mean anomaly
149.7634°
Eccentric anomaly
162.40276°
Mean motion
0.53051 °/min
Orbital period
678.6 mins
BSTAR
0.0010124
Loading maneuver chart data...
Computing Atmospheric mass density...
Loading historical data...
Loading historical data...
Loading historical data...
Loading historical data...
Loading historical data...
Loading historical data...
Loading historical data...

Documentation

Showing up to 5 results
|